Wainwright, AK

3:37 AM AKDT on March 28, 2017 (GMT -0800)
Wainwright

Weather History for PAWI - February, 2013

Change the Weather History Date:

Tuesday, February 12, 2013

  Actual Average (PABR) Record (PABR)
Temperature  
Mean Temperature -18 °F -  
Max Temperature -11 °F -8 °F 29 °F (1989)
Min Temperature -24 °F -19 °F -51 °F (1925)
Degree Days  
Heating Degree Days 82    
Moisture  
Dew Point -26 °F    
Average Humidity 72    
Maximum Humidity 75    
Minimum Humidity 69    
Precipitation  
Precipitation 0.00 in - - ()
Sea Level Pressure  
Sea Level Pressure 29.86 in    
Wind  
Wind Speed 10 mph (ENE)    
Max Wind Speed 13 mph    
Max Gust Speed -    
Visibility 7 miles    
Events      
Averages and records for this station are not official NWS values.
T = Trace of Precipitation, MM = Missing Value Source: NWS Daily Summary

Daily Weather History Graph

Daily Weather History Graph

Search for Another Location

Airport or City:

Trip Planner

Search our weather history database for the weather conditions in past years. The results will help you decide how hot, cold, wet, or windy it might be!

Date:

Astronomy

Feb. 12, 2013 Rise Set
Actual Time 10:31 AM AKST 5:18 PM AKST
Civil Twilight 9:17 AM AKST 6:32 PM AKST
Nautical Twilight 8:02 AM AKST 7:47 PM AKST
Astronomical Twilight 6:50 AM AKST 9:00 PM AKST
Moon 9:22 AM AKST (2/12) 11:05 PM AKST (2/12)
Length of Visible Light 9h 14m
Length of Day
6h 46m
Waxing Crescent, 8% of the Moon is Illuminated
Feb 12
Waxing Crescent
Feb 17
First Quarter
Feb 25
Full
Mar 4
Last Quarter
Mar 11
New

Hourly Weather History & Observations

Time (AKST) Temp. Windchill Dew Point Humidity Pressure Visibility Wind Dir Wind Speed Gust Speed Precip Events Conditions
12:53 AM -11.9 °F -33.0 °F -18.0 °F 74% 29.78 in 7.0 mi ENE 12.7 mph - N/A   Overcast
3:53 AM -16.1 °F -35.0 °F -22.0 °F 74% 29.80 in 8.0 mi ENE 9.2 mph - N/A   Scattered Clouds
4:53 AM -18.9 °F -38.6 °F -26.0 °F 70% 29.80 in 8.0 mi East 9.2 mph - N/A   Clear
5:53 AM -20.9 °F -39.7 °F -27.0 °F 73% 29.80 in 8.0 mi East 8.1 mph - N/A   Clear
6:53 AM -22.0 °F -41.0 °F -27.9 °F 74% 29.81 in 8.0 mi East 8.1 mph - N/A   Clear
8:53 AM -24.0 °F -37.9 °F -31.0 °F 70% 29.83 in 8.0 mi East 4.6 mph - N/A   Clear
9:53 AM -24.0 °F -44.8 °F -31.0 °F 70% 29.83 in 8.0 mi ENE 9.2 mph - N/A   Clear
10:53 AM -22.0 °F -39.4 °F -27.9 °F 74% 29.84 in 7.0 mi NE 6.9 mph - N/A   Overcast
11:53 AM -18.9 °F -38.6 °F -26.0 °F 70% 29.84 in 7.0 mi NE 9.2 mph - N/A   Overcast
12:53 PM -15.0 °F -35.9 °F -22.0 °F 71% 29.85 in 7.0 mi ENE 11.5 mph - N/A   Overcast
1:53 PM -14.1 °F -33.7 °F -20.9 °F 71% 29.86 in 8.0 mi ENE 10.4 mph - N/A   Overcast
2:53 PM -15.0 °F -33.7 °F -20.9 °F 75% 29.87 in 7.0 mi ENE 9.2 mph - N/A   Mostly Cloudy
4:53 PM -18.0 °F -39.7 °F -24.0 °F 74% 29.87 in 8.0 mi ENE 11.5 mph - N/A   Partly Cloudy
5:53 PM -18.9 °F -41.8 °F -26.0 °F 70% 29.88 in 7.0 mi NE 12.7 mph - N/A   Clear
6:53 PM -20.0 °F -42.2 °F -26.0 °F 74% 29.90 in 6.0 mi NE 11.5 mph - N/A   Haze
7:53 PM -18.9 °F -37.2 °F -25.1 °F 74% 29.90 in 2.5 mi NE 8.1 mph - N/A   Haze
8:42 PM -20.2 °F -41.3 °F -27.4 °F 69% 29.90 in 3.0 mi NE 10.4 mph - N/A   Haze
8:53 PM -20.9 °F -43.3 °F -27.0 °F 73% 29.91 in 4.0 mi NE 11.5 mph - N/A   Haze
9:53 PM -20.9 °F -41.0 °F -27.0 °F 73% 29.91 in 9.0 mi NE 9.2 mph - N/A   Clear
10:53 PM -22.0 °F -42.3 °F -29.0 °F 70% 29.91 in 9.0 mi NE 9.2 mph - N/A   Clear
11:53 PM -23.1 °F -43.7 °F -29.0 °F 74% 29.92 in 9.0 mi NE 9.2 mph - N/A   Clear